Probability
0 0 0 0 0 0 0 0 0 0 0 0 0 0 0 0 0 0 0 0 0 0 0 0 0 0 0 0 0 0 0 0 0 0 0 1 2 2
0 0 0 0 0 0 0 0 0 0 0 0 0 0 0 0 0 0 0 0 0 0 0 0 0 0 0 0 0 0 0 0 0 0 0 0 1 1
0 0 0 0 0 0 0 0 0 0 0 0 0 0 0 0 0 0 0 0 0 0 0 0 0 0 0 0 0 0 0 0 0 0 0 0 0 0
0 0 0 0 0 0 0 0 0 0 0 0 0 0 0 0 0 0 0 0 0 0 0 0 0 0 0 0 0 0 0 0 0 0 0 0 0 0
0 0 0 0 0 0 0 0 0 0 0 0 0 0 0 0 0 0 0 0 0 0 0 0 0 0 0 0 0 0 0 0 0 0 0 0 0 0
0 0 0 0 0 0 0 0 0 0 0 0 0 0 0 0 0 0 0 0 0 0 0 0 0 0 0 0 0 0 0 0 0 0 0 0 0 0
0 0 0 0 0 0 0 0 0 0 0 0 0 0 0 0 0 0 0 0 0 0 0 0 0 0 0 0 0 0 0 0 0 0 0 0 0 0
0 0 0 0 0 0 0 0 0 0 0 0 0 0 0 0 0 0 0 0 0 0 0 0 0 0 0 0 0 0 0 0 0 0 0 0 0 0
0 0 0 0 0 0 0 0 0 0 0 0 0 0 0 0 0 0 0 0 0 0 0 0 0 0 0 0 0 0 0 0 0 0 0 0 0 0
0 0 0 0 0 0 0 0 0 0 0 0 0 0 0 0 0 0 0 0 0 0 0 0 0 0 0 0 0 0 0 0 0 0 0 0 0 0
0 0 0 0 0 0 0 0 0 0 0 0 0 0 0 0 0 0 0 0 0 0 0 0 0 0 0 0 0 0 0 0 0 0 0 0 0 0
0 0 0 0 0 0 0 0 0 0 0 0 0 0 0 0 0 0 0 0 0 0 0 0 0 0 0 0 0 0 0 0 0 0 0 0 0 0
0 0 0 0 0 0 0 0 0 0 0 0 0 0 0 0 0 0 0 0 0 0 0 0 0 0 0 0 0 0 0 0 0 0 0 0 0 0
0 0 0 0 0 0 0 0 0 0 0 0 0 0 0 0 0 0 0 0 0 0 0 0 0 0 0 0 0 0 0 0 0 0 0 0 0 0
0 0 0 0 0 0 0 0 0 0 0 0 0 0 0 0 0 0 0 0 0 0 0 0 0 0 0 0 0 0 0 0 0 0 0 0 0 0
0 0 0 0 0 0 0 0 0 0 0 0 0 0 0 0 0 0 0 0 0 0 0 0 0 0 0 0 0 0 0 0 0 0 0 0 0 0
0 0 0 0 0 0 0 0 0 0 0 0 0 0 0 0 0 0 0 0 0 0 0 0 0 0 0 0 0 0 0 0 0 0 0 0 0 0
0 0 0 0 0 0 0 0 0 0 0 0 0 0 0 0 0 0 0 0 0 0 0 0 0 0 0 0 0 0 0 0 0 0 0 0 0 0
0 0 0 0 0 0 0 0 0 0 0 0 0 0 0 0 0 0 0 0 0 0 0 0 0 0 0 0 0 0 0 0 0 0 0 0 0 0
0 0 0 0 0 0 0 0 0 0 0 0 0 0 0 0 0 0 0 0 0 0 0 0 0 0 0 0 0 0 0 0 0 0 0 0 0 0
0 0 0 0 0 0 0 0 0 0 0 0 0 0 0 0 0 0 0 0 0 0 0 0 0 0 0 0 0 0 0 0 0 0 0 0 0 0
0 0 0 0 0 0 0 0 0 0 0 0 0 0 0 0 0 0 0 0 0 0 0 0 0 0 0 0 0 0 0 0 0 0 0 0 0 0
0 0 0 0 0 0 0 0 0 0 0 0 0 0 0 0 0 0 0 0 0 0 0 0 0 0 0 0 0 0 0 0 0 0 0 0 0 0
Wind_Speed
3 3 3 3 3 3 3 3 4 7 8 6 4 3 4 4 7 6 5 10 13 14 15 15 15 16 17 17 18 19 18 18 18 19 20 20 20 20
3 3 4 3 3 3 4 4 4 6 8 6 5 5 5 6 9 7 7 12 13 15 16 15 15 16 17 18 19 19 18 19 19 19 20 19 19 18
3 4 5 4 4 4 4 4 4 4 8 8 5 5 6 6 7 6 6 7 7 13 15 16 16 16 17 17 17 18 18 18 18 19 20 19 18 18
4 4 5 4 5 5 4 5 5 5 7 10 7 5 7 7 7 7 7 7 6 11 14 16 16 16 16 16 16 17 17 17 18 19 19 18 17 17
4 5 5 5 6 5 5 6 5 6 6 8 9 6 6 5 6 7 7 6 7 9 12 14 15 16 16 16 16 15 15 15 16 16 16 16 17 17
5 5 6 6 7 7 6 6 6 6 6 7 8 7 6 6 5 6 7 5 6 7 10 11 13 15 15 16 15 14 14 15 15 15 15 15 15 16
6 6 7 9 10 9 8 6 6 6 6 7 7 7 7 5 6 5 7 7 6 6 6 6 7 7 8 11 13 13 13 13 14 14 14 14 14 15
7 7 7 8 10 13 14 13 11 9 8 8 8 9 9 8 6 6 7 7 8 3 5 7 5 7 6 5 10 12 12 13 12 12 12 13 13 14
6 6 7 7 9 7 10 13 13 16 15 11 11 11 10 9 8 8 8 8 9 6 5 9 5 7 6 6 10 11 12 12 11 10 10 10 10 11
6 6 7 7 7 9 8 9 9 10 11 10 10 11 10 9 9 9 9 9 8 5 5 8 6 6 6 5 9 11 11 11 10 10 9 9 9 9
6 6 7 8 12 14 10 9 10 9 10 13 14 14 16 16 12 7 6 7 8 6 4 5 5 5 5 4 6 9 9 9 10 10 10 9 8 8
6 6 9 11 14 15 9 9 10 10 8 9 10 12 11 11 14 9 7 7 7 6 3 3 4 3 4 3 3 3 4 7 9 9 8 8 7 4
6 6 6 13 15 15 13 9 12 12 9 8 8 7 7 6 6 6 6 7 7 7 4 3 4 3 4 5 4 3 3 4 4 3 4 6 6 4
6 6 7 14 15 16 12 13 15 12 6 6 6 6 6 5 5 5 6 6 6 7 6 4 4 4 4 5 5 3 2 3 2 2 2 3 3 4
6 11 14 15 14 11 13 15 11 6 5 5 6 6 5 5 5 4 4 4 4 4 4 4 4 3 4 4 4 4 4 3 2 1 1 1 1 2
7 10 13 13 10 11 11 8 5 5 5 5 5 5 4 4 4 3 4 3 3 4 2 2 2 3 3 3 3 4 3 2 2 2 1 2 1 1
8 6 5 5 5 5 6 6 5 5 4 4 4 5 5 4 4 3 3 3 3 4 2 1 1 0 1 2 3 3 2 2 3 2 1 1 2 1
8 5 6 6 6 6 6 6 5 5 4 4 4 4 4 4 4 3 3 2 3 2 2 1 1 1 1 2 2 2 1 2 2 2 1 1 2 2
5 5 5 6 6 6 5 6 6 5 4 4 4 4 4 4 3 3 3 3 2 2 2 2 1 1 2 2 3 2 1 2 2 2 2 1 2 3
4 5 6 6 6 6 6 6 6 5 4 4 4 4 3 3 3 3 3 3 2 2 2 2 1 2 2 2 2 3 3 1 1 1 2 1 1 2
5 5 5 5 6 6 6 6 6 6 5 4 4 4 3 3 3 3 2 3 2 2 2 2 2 2 0 1 1 2 2 3 2 1 2 1 2 2
6 6 6 6 6 6 6 6 6 6 6 4 4 3 3 2 2 3 2 2 1 1 1 2 1 1 1 1 1 1 3 3 5 5 4 2 1 1
6 6 6 6 6 6 6 6 7 6 6 5 3 3 3 2 2 2 2 1 1 1 1 1 1 1 1 1 1 1 2 3 3 3 4 4 3 1
Wind_Direction
240 246 249 249 247 247 246 238 253 278 280 274 271 268 270 266 269 269 263 269 271 270 268 267 267 269 270 272 273 271 270 270 269 266 263 263 262 258
246 245 250 253 252 246 243 247 243 255 273 277 277 282 282 285 283 276 268 274 271 270 268 269 269 270 271 271 270 269 268 268 268 265 262 262 261 258
254 252 252 251 255 257 251 249 252 253 269 280 278 282 280 278 282 275 272 268 267 270 273 274 272 271 271 270 270 269 268 267 265 263 261 259 260 258
255 256 258 260 257 259 257 255 254 253 262 278 284 282 277 274 273 276 280 280 274 276 276 275 273 272 273 271 270 269 267 265 263 261 259 258 257 259
261 259 261 259 261 260 258 258 260 265 260 270 279 279 279 278 280 280 276 273 278 278 275 274 274 275 275 273 271 268 264 262 262 261 259 258 256 258
264 263 265 259 259 261 261 258 261 265 265 269 276 280 278 276 275 279 284 272 274 282 278 277 276 275 275 274 271 269 266 263 261 260 259 256 255 256
274 270 268 269 270 271 271 264 261 262 266 268 273 279 278 279 273 274 280 284 276 269 272 273 274 269 268 270 269 266 267 265 262 263 260 255 251 251
277 277 276 273 275 277 278 277 272 266 266 265 269 268 273 272 274 274 278 284 284 258 268 279 272 272 269 262 266 268 269 270 265 265 262 256 250 248
283 284 287 286 286 278 279 278 273 268 264 263 265 266 269 268 270 272 268 271 274 274 276 281 272 271 273 275 271 270 271 272 265 264 262 258 253 250
287 283 283 284 284 285 280 277 271 268 265 262 260 264 266 264 260 264 268 273 276 271 253 274 279 276 281 275 272 270 271 270 263 264 263 258 255 254
291 291 291 287 292 295 288 282 282 278 277 275 274 274 275 276 276 276 272 273 280 278 246 253 273 286 283 275 275 271 270 275 275 269 264 261 260 258
298 295 293 295 297 298 289 282 283 283 283 283 280 277 273 272 272 263 258 264 275 278 247 244 273 291 290 272 273 284 283 281 278 270 261 258 260 256
299 298 296 302 302 301 298 287 286 291 286 282 279 277 273 268 265 261 254 254 261 268 257 253 271 272 266 286 293 285 283 289 284 274 258 253 252 247
295 295 298 303 304 305 302 295 295 295 285 281 279 277 275 273 272 270 267 263 261 265 257 250 260 260 268 281 289 293 298 303 302 293 280 265 258 252
297 301 305 307 308 304 302 304 301 290 282 283 283 280 278 278 278 278 280 277 283 283 272 262 259 261 264 273 284 290 300 306 298 281 281 288 287 276
306 305 309 308 307 305 306 306 299 289 288 283 285 287 290 287 285 284 287 290 300 307 304 281 265 248 263 279 279 291 296 286 301 306 303 309 299 268
312 309 307 309 309 309 307 307 303 301 301 296 294 297 296 295 299 300 293 296 291 296 316 339 10 26 293 276 275 281 292 303 302 303 306 313 303 274
317 308 309 309 306 306 309 311 310 305 302 300 298 295 295 296 302 305 297 286 284 291 293 294 315 334 336 342 309 271 297 315 321 328 343 334 318 319
318 308 306 308 309 311 309 307 309 307 305 301 299 296 295 295 297 298 297 290 288 292 295 289 279 275 297 314 335 355 309 313 324 343 356 342 304 300
316 310 309 311 313 314 312 310 309 308 304 301 299 297 296 299 298 294 290 289 297 309 313 312 288 273 261 274 302 331 344 299 308 326 337 344 323 320
321 318 317 316 316 316 315 313 313 310 305 302 300 301 298 297 297 298 295 301 304 305 304 306 301 308 340 31 15 348 359 13 352 295 300 333 345 359
325 325 325 324 323 323 323 321 319 319 317 310 308 306 304 301 301 301 294 292 296 298 308 319 332 359 28 67 25 349 346 357 13 12 1 321 242 192
325 325 324 324 325 325 323 323 323 322 324 321 318 317 316 314 308 300 292 292 305 315 329 334 354 31 34 71 70 8 353 347 353 10 16 18 24 354